Location: Finch Observatory
(42.1604°N, 72.0115°W)
Time: 18:39:25
(UTC-05:00)

Envisat - Visible Passes

Search period start: 22 January 2018 00:00
Search period end: 01 February 2018 00:00
Orbit: 764 x 766 km, 98.2° (Epoch: 22 January)

Date Brightness Start Highest point End Pass type
(mag) Time Alt. Az. Time Alt. Az. Time Alt. Az.
22 Jan 4.0 19:13:56 35° N 19:13:56 35° N 19:16:52 10° N visible
23 Jan 3.9 18:36:31 28° NE 18:36:31 28° NE 18:39:45 10° N visible
23 Jan 5.2 20:16:42 21° NW 20:16:42 21° NW 20:18:43 10° NW visible
24 Jan 4.5 17:59:05 16° ENE 17:59:05 16° ENE 18:01:57 10° NNE visible
24 Jan 4.1 19:39:17 38° NNW 19:39:17 38° NNW 19:42:27 10° NNW visible
25 Jan 3.4 19:01:50 45° NNE 19:01:50 45° NNE 19:05:40 10° N visible
25 Jan 5.7 20:42:01 15° WNW 20:42:01 15° WNW 20:43:26 10° NW visible
26 Jan 3.9 18:24:23 26° ENE 18:24:23 26° ENE 18:28:24 10° N visible
26 Jan 4.6 20:04:35 31° WNW 20:04:35 31° WNW 20:07:47 10° NNW visible
27 Jan 4.6 17:46:56 12° ENE 17:47:57 13° ENE 17:50:10 10° NNE visible
27 Jan 3.2 19:27:07 62° NNW 19:27:07 62° NNW 19:31:21 10° NNW visible
28 Jan 3.2 18:49:40 44° ENE 18:49:40 44° ENE 18:54:26 10° N visible
28 Jan 5.3 20:29:51 21° WNW 20:29:51 21° WNW 20:32:45 10° NW visible
29 Jan 4.1 18:12:12 20° E 18:13:12 21° ENE 18:16:59 10° NNE visible
29 Jan 3.9 19:52:23 47° W 19:52:23 47° W 19:56:48 10° NNW visible
30 Jan 4.8 17:36:21 10° ENE 17:36:59 10° ENE 17:37:37 10° NE visible
30 Jan 2.8 19:14:53 75° ESE 19:15:06 77° ENE 19:20:12 10° N visible
30 Jan 5.9 20:55:05 12° W 20:55:05 12° W 20:56:49 10° WNW visible
31 Jan 3.5 18:37:25 31° E 18:38:33 35° ENE 18:43:08 10° N visible
31 Jan 4.8 20:17:36 28° W 20:17:36 28° W 20:21:56 10° NW visible
